Flag for U.S.A. Weather past 2 weeks in Glennallen, Alaska, U.S.A.

Now
33 °F

Passing clouds.


Feels Like: 25 °F
Forecast: 31 / 47 °F
Wind: 9 mph from South

Location: Gulkana Airport

Current Time: Apr 18, 2015 at 1:33:00 AM

Latest Report: Apr 18, 2015 at 12:53 AM


Visibility: 10 mi

Pressure: 30.02 "Hg

Humidity: 52%

Dew point: 17 °F

Location of GlennallenLocation

Historic Weather in Glennallen — Graph

°F

Glennallen temperature yesterday

Maximum temperature yesterday: 40 °F (at 11:53 AM)
Minimum temperature yesterday: 30 °F (at 5:53 AM)
Average temperature yesterday: 35 °F

Past Weeks' High & Low Weather Summary

 TemperatureHumidityPressure
High45 °F (Apr 7, 1:53 PM)85% (Apr 12, 1:53 AM)30.19 "Hg (Apr 12, 1:53 AM)
Low11 °F (Apr 14, 6:53 AM)25% (Apr 14, 7:53 PM)29.04 "Hg (Apr 10, 3:53 AM)
Average33 °F56%29.60 "Hg
* Reported Apr 2 11:53 PM — Apr 17 11:53 PM, Glennallen, Weather by CustomWeather, © 2015

Note: Actual official high and low records may vary slightly from our data, if they occured in-between our weather recording intervals... More about our weather records

Advertising

Glennallen weather history for previous 24 hours

 ConditionsComfort  
Time TempWeatherWind HumidityBarometerVisibility
11:53 PM
Fri, Apr 17
33 °FOvercast.8 mph56%30.03 "Hg10 mi
10:53 PM33 °FClear.9 mph54%30.04 "Hg10 mi
9:53 PM34 °FSunny.13 mph52%30.05 "Hg10 mi
8:53 PM35 °FSunny.17 mph50%30.04 "Hg10 mi
7:53 PM36 °FSunny.13 mph46%30.05 "Hg10 mi
6:53 PM38 °FSunny.21 mph43%30.04 "Hg10 mi
5:53 PM39 °FSunny.18 mph43%30.05 "Hg10 mi
4:53 PM40 °FSunny.26 mph38%30.05 "Hg10 mi
3:53 PM40 °FScattered clouds.26 mph38%30.05 "Hg10 mi
2:53 PM39 °FPassing clouds.21 mph39%30.05 "Hg10 mi
1:53 PM40 °FPassing clouds.18 mph40%30.04 "Hg10 mi
12:53 PM40 °FPassing clouds.23 mph40%30.03 "Hg10 mi
11:53 AM40 °FSunny.24 mph38%30.00 "Hg10 mi
10:53 AM38 °FSunny.20 mph45%29.97 "Hg10 mi
9:53 AM36 °FSunny.16 mph57%29.97 "Hg10 mi
8:53 AM34 °FSunny.16 mph64%29.96 "Hg10 mi
7:53 AM30 °FSunny.12 mph72%29.95 "Hg10 mi
6:53 AM31 °FClear.10 mph69%29.92 "Hg10 mi
5:53 AM30 °FClear.9 mph72%29.90 "Hg10 mi
4:53 AM31 °FClear.10 mph69%29.89 "Hg10 mi
3:53 AM31 °FPassing clouds.10 mph69%29.89 "Hg10 mi
2:53 AM32 °FPassing clouds.13 mph66%29.88 "Hg10 mi
1:53 AM31 °FClear.9 mph69%29.88 "Hg10 mi
Weather by CustomWeather, © 2015

See weather overviewHow to use our weather pages